Location: Street
(51.1247°N, 2.7429°W)
Time: 09:27:59
(UTC+00:00)

Tiros 1 - Pass Details

Date: 30 November 2020
Orbit: 630 x 663 km, 48.4° (Epoch: 21 January)

Event Time Altitude Azimuth Distance (km) Brightness Sun altitude
Rises 13:54:37 0° 191° (S) 2,982 12.2 12.9°
Reaches altitude 10° 13:58:14 10° 163° (SSE) 2,075 10.6 12.6°
Maximum altitude 14:00:19 13° 137° (SE) 1,895 9.9 12.4°
Drops below altitude 10° 14:02:24 10° 111° (ESE) 2,078 9.7 12.3°
Sets 14:06:00 0° 84° (E) 2,991 10.2 12.0°
